owner,sensor,date,latitude,longitude,vertical_datum,sea_water_temperature,qcFlag 
ENP,ioos.station.NOAA.NDBC:CNBF1:1,2015-01-01T00:00:00Z,25.7020,-81.1860,1.0,26.23,2 
ENP,ioos.station.NOAA.NDBC:CNBF1:1,2015-01-01T01:00:00Z,25.7020,-81.1860,1.0,26.13,2 
ENP,ioos.station.NOAA.NDBC:CNBF1:1,2015-01-01T02:00:00Z,25.7020,-81.1860,1.0,26.09,2 
ENP,ioos.station.NOAA.NDBC:CNBF1:1,2015-01-01T03:00:00Z,25.7020,-81.1860,1.0,26.07,2 
ENP,ioos.station.NOAA.NDBC:CNBF1:1,2015-01-01T04:00:00Z,25.7020,-81.1860,1.0,25.96,2 
ENP,ioos.station.NOAA.NDBC:CNBF1:1,2015-01-01T05:00:00Z,25.7020,-81.1860,1.0,25.86,2 
ENP,ioos.station.NOAA.NDBC:CNBF1:1,2015-01-01T06:00:00Z,25.7020,-81.1860,1.0,25.8,2 
ENP,ioos.station.NOAA.NDBC:CNBF1:1,2015-01-01T07:00:00Z,25.7020,-81.1860,1.0,25.39,2 
ENP,ioos.station.NOAA.NDBC:CNBF1:1,2015-01-01T08:00:00Z,25.7020,-81.1860,1.0,25.43,2 
ENP,ioos.station.NOAA.NDBC:CNBF1:1,2015-01-01T09:00:00Z,25.7020,-81.1860,1.0,25.41,2 
ENP,ioos.station.NOAA.NDBC:CNBF1:1,2015-01-01T10:00:00Z,25.7020,-81.1860,1.0,25.3,2 
ENP,ioos.station.NOAA.NDBC:CNBF1:1,2015-01-01T11:00:00Z,25.7020,-81.1860,1.0,25.3,2 
ENP,ioos.station.NOAA.NDBC:CNBF1:1,2015-01-01T12:00:00Z,25.7020,-81.1860,1.0,25.3,2 
ENP,ioos.station.NOAA.NDBC:CNBF1:1,2015-01-01T13:00:00Z,25.7020,-81.1860,1.0,25.37,2 
ENP,ioos.station.NOAA.NDBC:CNBF1:1,2015-01-01T14:00:00Z,25.7020,-81.1860,1.0,25.48,2 
ENP,ioos.station.NOAA.NDBC:CNBF1:1,2015-01-01T15:00:00Z,25.7020,-81.1860,1.0,25.57,2 
ENP,ioos.station.NOAA.NDBC:CNBF1:1,2015-01-01T16:00:00Z,25.7020,-81.1860,1.0,25.64,2 
ENP,ioos.station.NOAA.NDBC:CNBF1:1,2015-01-01T17:00:00Z,25.7020,-81.1860,1.0,26.42,2 
ENP,ioos.station.NOAA.NDBC:CNBF1:1,2015-01-01T18:00:00Z,25.7020,-81.1860,1.0,26.66,2 
ENP,ioos.station.NOAA.NDBC:CNBF1:1,2015-01-01T19:00:00Z,25.7020,-81.1860,1.0,27.02,2 
ENP,ioos.station.NOAA.NDBC:CNBF1:1,2015-01-01T20:00:00Z,25.7020,-81.1860,1.0,27.56,2 
ENP,ioos.station.NOAA.NDBC:CNBF1:1,2015-01-01T21:00:00Z,25.7020,-81.1860,1.0,27.67,2 
ENP,ioos.station.NOAA.NDBC:CNBF1:1,2015-01-01T22:00:00Z,25.7020,-81.1860,1.0,27.65,2 
ENP,ioos.station.NOAA.NDBC:CNBF1:1,2015-01-01T23:00:00Z,25.7020,-81.1860,1.0,27.34,2 
ENP,ioos.station.NOAA.NDBC:CNBF1:1,2015-01-02T00:00:00Z,25.7020,-81.1860,1.0,27.21,2 
ENP,ioos.station.NOAA.NDBC:CNBF1:1,2015-01-02T01:00:00Z,25.7020,-81.1860,1.0,27.14,2 
ENP,ioos.station.NOAA.NDBC:CNBF1:1,2015-01-02T02:00:00Z,25.7020,-81.1860,1.0,27.04,2 
ENP,ioos.station.NOAA.NDBC:CNBF1:1,2015-01-02T05:00:00Z,25.7020,-81.1860,1.0,26.88,2 
ENP,ioos.station.NOAA.NDBC:CNBF1:1,2015-01-02T06:00:00Z,25.7020,-81.1860,1.0,26.69,2 
ENP,ioos.station.NOAA.NDBC:CNBF1:1,2015-01-02T07:00:00Z,25.7020,-81.1860,1.0,26.53,2 
ENP,ioos.station.NOAA.NDBC:CNBF1:1,2015-01-02T08:00:00Z,25.7020,-81.1860,1.0,26.54,2 
ENP,ioos.station.NOAA.NDBC:CNBF1:1,2015-01-02T09:00:00Z,25.7020,-81.1860,1.0,26.5,2 
ENP,ioos.station.NOAA.NDBC:CNBF1:1,2015-01-02T10:00:00Z,25.7020,-81.1860,1.0,26.34,2 
ENP,ioos.station.NOAA.NDBC:CNBF1:1,2015-01-02T11:00:00Z,25.7020,-81.1860,1.0,26.21,2 
ENP,ioos.station.NOAA.NDBC:CNBF1:1,2015-01-02T12:00:00Z,25.7020,-81.1860,1.0,26.21,2 
ENP,ioos.station.NOAA.NDBC:CNBF1:1,2015-01-02T13:00:00Z,25.7020,-81.1860,1.0,26.19,2 
ENP,ioos.station.NOAA.NDBC:CNBF1:1,2015-01-02T14:00:00Z,25.7020,-81.1860,1.0,26.22,2 
ENP,ioos.station.NOAA.NDBC:CNBF1:1,2015-01-02T15:00:00Z,25.7020,-81.1860,1.0,26.2,2 
ENP,ioos.station.NOAA.NDBC:CNBF1:1,2015-01-02T16:00:00Z,25.7020,-81.1860,1.0,26.28,2 
ENP,ioos.station.NOAA.NDBC:CNBF1:1,2015-01-02T17:00:00Z,25.7020,-81.1860,1.0,26.53,2 
ENP,ioos.station.NOAA.NDBC:CNBF1:1,2015-01-02T18:00:00Z,25.7020,-81.1860,1.0,26.43,2 
ENP,ioos.station.NOAA.NDBC:CNBF1:1,2015-01-02T19:00:00Z,25.7020,-81.1860,1.0,26.35,2 
ENP,ioos.station.NOAA.NDBC:CNBF1:1,2015-01-02T20:00:00Z,25.7020,-81.1860,1.0,26.38,2 
ENP,ioos.station.NOAA.NDBC:CNBF1:1,2015-01-02T21:00:00Z,25.7020,-81.1860,1.0,26.45,2 
ENP,ioos.station.NOAA.NDBC:CNBF1:1,2015-01-02T22:00:00Z,25.7020,-81.1860,1.0,26.48,2 
ENP,ioos.station.NOAA.NDBC:CNBF1:1,2015-01-02T23:00:00Z,25.7020,-81.1860,1.0,26.41,2 
ENP,ioos.station.NOAA.NDBC:CNBF1:1,2015-01-03T00:00:00Z,25.7020,-81.1860,1.0,26.29,2 
ENP,ioos.station.NOAA.NDBC:CNBF1:1,2015-01-03T01:00:00Z,25.7020,-81.1860,1.0,26.02,2 
ENP,ioos.station.NOAA.NDBC:CNBF1:1,2015-01-03T02:00:00Z,25.7020,-81.1860,1.0,26.14,2 
ENP,ioos.station.NOAA.NDBC:CNBF1:1,2015-01-03T03:00:00Z,25.7020,-81.1860,1.0,26.02,2 
ENP,ioos.station.NOAA.NDBC:CNBF1:1,2015-01-03T05:00:00Z,25.7020,-81.1860,1.0,26.12,2 
ENP,ioos.station.NOAA.NDBC:CNBF1:1,2015-01-03T06:00:00Z,25.7020,-81.1860,1.0,26.1,2 
ENP,ioos.station.NOAA.NDBC:CNBF1:1,2015-01-03T07:00:00Z,25.7020,-81.1860,1.0,26.08,2 
ENP,ioos.station.NOAA.NDBC:CNBF1:1,2015-01-03T08:00:00Z,25.7020,-81.1860,1.0,26.1,2 
ENP,ioos.station.NOAA.NDBC:CNBF1:1,2015-01-03T09:00:00Z,25.7020,-81.1860,1.0,25.96,2 
ENP,ioos.station.NOAA.NDBC:CNBF1:1,2015-01-03T10:00:00Z,25.7020,-81.1860,1.0,25.16,2 
ENP,ioos.station.NOAA.NDBC:CNBF1:1,2015-01-03T11:00:00Z,25.7020,-81.1860,1.0,25.1,2 
ENP,ioos.station.NOAA.NDBC:CNBF1:1,2015-01-03T12:00:00Z,25.7020,-81.1860,1.0,24.9,2 
ENP,ioos.station.NOAA.NDBC:CNBF1:1,2015-01-03T13:00:00Z,25.7020,-81.1860,1.0,24.88,2 
ENP,ioos.station.NOAA.NDBC:CNBF1:1,2015-01-03T14:00:00Z,25.7020,-81.1860,1.0,24.76,2 
ENP,ioos.station.NOAA.NDBC:CNBF1:1,2015-01-03T15:00:00Z,25.7020,-81.1860,1.0,24.63,2 
ENP,ioos.station.NOAA.NDBC:CNBF1:1,2015-01-03T16:00:00Z,25.7020,-81.1860,1.0,24.97,2 
ENP,ioos.station.NOAA.NDBC:CNBF1:1,2015-01-03T17:00:00Z,25.7020,-81.1860,1.0,25.46,2 
ENP,ioos.station.NOAA.NDBC:CNBF1:1,2015-01-03T18:00:00Z,25.7020,-81.1860,1.0,25.57,2 
ENP,ioos.station.NOAA.NDBC:CNBF1:1,2015-01-03T19:00:00Z,25.7020,-81.1860,1.0,25.92,2 
ENP,ioos.station.NOAA.NDBC:CNBF1:1,2015-01-03T20:00:00Z,25.7020,-81.1860,1.0,26.21,2 
ENP,ioos.station.NOAA.NDBC:CNBF1:1,2015-01-03T21:00:00Z,25.7020,-81.1860,1.0,26.31,2 
ENP,ioos.station.NOAA.NDBC:CNBF1:1,2015-01-03T22:00:00Z,25.7020,-81.1860,1.0,26.45,2 
ENP,ioos.station.NOAA.NDBC:CNBF1:1,2015-01-03T23:00:00Z,25.7020,-81.1860,1.0,26.39,2 
ENP,ioos.station.NOAA.NDBC:CNBF1:1,2015-01-04T00:00:00Z,25.7020,-81.1860,1.0,26.27,2 
ENP,ioos.station.NOAA.NDBC:CNBF1:1,2015-01-04T01:00:00Z,25.7020,-81.1860,1.0,26.08,2 
ENP,ioos.station.NOAA.NDBC:CNBF1:1,2015-01-04T02:00:00Z,25.7020,-81.1860,1.0,25.88,2 
ENP,ioos.station.NOAA.NDBC:CNBF1:1,2015-01-04T05:00:00Z,25.7020,-81.1860,1.0,25.8,2 
ENP,ioos.station.NOAA.NDBC:CNBF1:1,2015-01-04T06:00:00Z,25.7020,-81.1860,1.0,25.88,2 
ENP,ioos.station.NOAA.NDBC:CNBF1:1,2015-01-04T07:00:00Z,25.7020,-81.1860,1.0,25.76,2 
ENP,ioos.station.NOAA.NDBC:CNBF1:1,2015-01-04T08:00:00Z,25.7020,-81.1860,1.0,25.5,2 
ENP,ioos.station.NOAA.NDBC:CNBF1:1,2015-01-04T09:00:00Z,25.7020,-81.1860,1.0,25.41,2 
ENP,ioos.station.NOAA.NDBC:CNBF1:1,2015-01-04T10:00:00Z,25.7020,-81.1860,1.0,25.35,2 
ENP,ioos.station.NOAA.NDBC:CNBF1:1,2015-01-04T11:00:00Z,25.7020,-81.1860,1.0,25.6,2 
ENP,ioos.station.NOAA.NDBC:CNBF1:1,2015-01-04T12:00:00Z,25.7020,-81.1860,1.0,25.71,2 
ENP,ioos.station.NOAA.NDBC:CNBF1:1,2015-01-04T13:00:00Z,25.7020,-81.1860,1.0,25.58,2 
ENP,ioos.station.NOAA.NDBC:CNBF1:1,2015-01-04T14:00:00Z,25.7020,-81.1860,1.0,25.44,2 
ENP,ioos.station.NOAA.NDBC:CNBF1:1,2015-01-04T15:00:00Z,25.7020,-81.1860,1.0,25.07,2 
ENP,ioos.station.NOAA.NDBC:CNBF1:1,2015-01-04T16:00:00Z,25.7020,-81.1860,1.0,25.15,2 
ENP,ioos.station.NOAA.NDBC:CNBF1:1,2015-01-04T17:00:00Z,25.7020,-81.1860,1.0,25.54,2 
ENP,ioos.station.NOAA.NDBC:CNBF1:1,2015-01-04T18:00:00Z,25.7020,-81.1860,1.0,25.99,2 
ENP,ioos.station.NOAA.NDBC:CNBF1:1,2015-01-04T19:00:00Z,25.7020,-81.1860,1.0,26.27,2 
ENP,ioos.station.NOAA.NDBC:CNBF1:1,2015-01-04T20:00:00Z,25.7020,-81.1860,1.0,26.48,2 
ENP,ioos.station.NOAA.NDBC:CNBF1:1,2015-01-04T21:00:00Z,25.7020,-81.1860,1.0,26.63,2 
ENP,ioos.station.NOAA.NDBC:CNBF1:1,2015-01-04T22:00:00Z,25.7020,-81.1860,1.0,26.82,2 
ENP,ioos.station.NOAA.NDBC:CNBF1:1,2015-01-04T23:00:00Z,25.7020,-81.1860,1.0,26.91,2 
ENP,ioos.station.NOAA.NDBC:CNBF1:1,2015-01-05T00:00:00Z,25.7020,-81.1860,1.0,26.82,2 
ENP,ioos.station.NOAA.NDBC:CNBF1:1,2015-01-05T01:00:00Z,25.7020,-81.1860,1.0,26.58,2 
ENP,ioos.station.NOAA.NDBC:CNBF1:1,2015-01-05T02:00:00Z,25.7020,-81.1860,1.0,26.39,2 
ENP,ioos.station.NOAA.NDBC:CNBF1:1,2015-01-05T03:00:00Z,25.7020,-81.1860,1.0,26.44,2 
ENP,ioos.station.NOAA.NDBC:CNBF1:1,2015-01-05T05:00:00Z,25.7020,-81.1860,1.0,26.56,2 
ENP,ioos.station.NOAA.NDBC:CNBF1:1,2015-01-05T06:00:00Z,25.7020,-81.1860,1.0,26.26,2 
ENP,ioos.station.NOAA.NDBC:CNBF1:1,2015-01-05T07:00:00Z,25.7020,-81.1860,1.0,26.39,2 
ENP,ioos.station.NOAA.NDBC:CNBF1:1,2015-01-05T08:00:00Z,25.7020,-81.1860,1.0,26.45,2 
ENP,ioos.station.NOAA.NDBC:CNBF1:1,2015-01-05T09:00:00Z,25.7020,-81.1860,1.0,26.55,2 
ENP,ioos.station.NOAA.NDBC:CNBF1:1,2015-01-05T10:00:00Z,25.7020,-81.1860,1.0,26.6,2 
ENP,ioos.station.NOAA.NDBC:CNBF1:1,2015-01-05T11:00:00Z,25.7020,-81.1860,1.0,26.59,2 
ENP,ioos.station.NOAA.NDBC:CNBF1:1,2015-01-05T12:00:00Z,25.7020,-81.1860,1.0,26.54,2 
ENP,ioos.station.NOAA.NDBC:CNBF1:1,2015-01-05T13:00:00Z,25.7020,-81.1860,1.0,26.14,2 
ENP,ioos.station.NOAA.NDBC:CNBF1:1,2015-01-05T15:00:00Z,25.7020,-81.1860,1.0,25.75,2 
ENP,ioos.station.NOAA.NDBC:CNBF1:1,2015-01-05T16:00:00Z,25.7020,-81.1860,1.0,26.15,2 
ENP,ioos.station.NOAA.NDBC:CNBF1:1,2015-01-05T17:00:00Z,25.7020,-81.1860,1.0,26.65,2 
ENP,ioos.station.NOAA.NDBC:CNBF1:1,2015-01-05T18:00:00Z,25.7020,-81.1860,1.0,27.19,2 
ENP,ioos.station.NOAA.NDBC:CNBF1:1,2015-01-05T19:00:00Z,25.7020,-81.1860,1.0,27.47,2 
ENP,ioos.station.NOAA.NDBC:CNBF1:1,2015-01-05T20:00:00Z,25.7020,-81.1860,1.0,27.59,2 
ENP,ioos.station.NOAA.NDBC:CNBF1:1,2015-01-05T21:00:00Z,25.7020,-81.1860,1.0,27.87,2 
ENP,ioos.station.NOAA.NDBC:CNBF1:1,2015-01-05T22:00:00Z,25.7020,-81.1860,1.0,27.95,2 
ENP,ioos.station.NOAA.NDBC:CNBF1:1,2015-01-05T23:00:00Z,25.7020,-81.1860,1.0,27.77,2 
ENP,ioos.station.NOAA.NDBC:CNBF1:1,2015-01-06T00:00:00Z,25.7020,-81.1860,1.0,27.58,2 
ENP,ioos.station.NOAA.NDBC:CNBF1:1,2015-01-06T01:00:00Z,25.7020,-81.1860,1.0,27.37,2 
ENP,ioos.station.NOAA.NDBC:CNBF1:1,2015-01-06T02:00:00Z,25.7020,-81.1860,1.0,27.37,2 
ENP,ioos.station.NOAA.NDBC:CNBF1:1,2015-01-06T03:00:00Z,25.7020,-81.1860,1.0,27.24,2 
ENP,ioos.station.NOAA.NDBC:CNBF1:1,2015-01-06T04:00:00Z,25.7020,-81.1860,1.0,26.98,2 
ENP,ioos.station.NOAA.NDBC:CNBF1:1,2015-01-06T05:00:00Z,25.7020,-81.1860,1.0,26.71,2 
ENP,ioos.station.NOAA.NDBC:CNBF1:1,2015-01-06T06:00:00Z,25.7020,-81.1860,1.0,26.52,2 
ENP,ioos.station.NOAA.NDBC:CNBF1:1,2015-01-06T07:00:00Z,25.7020,-81.1860,1.0,26.34,2 
ENP,ioos.station.NOAA.NDBC:CNBF1:1,2015-01-06T08:00:00Z,25.7020,-81.1860,1.0,26.3,2 
ENP,ioos.station.NOAA.NDBC:CNBF1:1,2015-01-06T09:00:00Z,25.7020,-81.1860,1.0,26.17,2 
ENP,ioos.station.NOAA.NDBC:CNBF1:1,2015-01-06T10:00:00Z,25.7020,-81.1860,1.0,26.09,2 
ENP,ioos.station.NOAA.NDBC:CNBF1:1,2015-01-06T11:00:00Z,25.7020,-81.1860,1.0,25.81,2 
ENP,ioos.station.NOAA.NDBC:CNBF1:1,2015-01-06T12:00:00Z,25.7020,-81.1860,1.0,25.58,2 
ENP,ioos.station.NOAA.NDBC:CNBF1:1,2015-01-06T13:00:00Z,25.7020,-81.1860,1.0,25.33,2 
ENP,ioos.station.NOAA.NDBC:CNBF1:1,2015-01-06T14:00:00Z,25.7020,-81.1860,1.0,25.09,2 
ENP,ioos.station.NOAA.NDBC:CNBF1:1,2015-01-06T15:00:00Z,25.7020,-81.1860,1.0,25.08,2 
ENP,ioos.station.NOAA.NDBC:CNBF1:1,2015-01-06T16:00:00Z,25.7020,-81.1860,1.0,25.29,2 
ENP,ioos.station.NOAA.NDBC:CNBF1:1,2015-01-06T17:00:00Z,25.7020,-81.1860,1.0,25.72,2 
ENP,ioos.station.NOAA.NDBC:CNBF1:1,2015-01-06T18:00:00Z,25.7020,-81.1860,1.0,26.17,2 
ENP,ioos.station.NOAA.NDBC:CNBF1:1,2015-01-06T19:00:00Z,25.7020,-81.1860,1.0,26.9,2 
ENP,ioos.station.NOAA.NDBC:CNBF1:1,2015-01-06T20:00:00Z,25.7020,-81.1860,1.0,28.15,2 
ENP,ioos.station.NOAA.NDBC:CNBF1:1,2015-01-06T21:00:00Z,25.7020,-81.1860,1.0,28.43,2 
ENP,ioos.station.NOAA.NDBC:CNBF1:1,2015-01-06T22:00:00Z,25.7020,-81.1860,1.0,28.47,2 
ENP,ioos.station.NOAA.NDBC:CNBF1:1,2015-01-06T23:00:00Z,25.7020,-81.1860,1.0,28.34,2 
ENP,ioos.station.NOAA.NDBC:CNBF1:1,2015-01-07T00:00:00Z,25.7020,-81.1860,1.0,27.96,2 
ENP,ioos.station.NOAA.NDBC:CNBF1:1,2015-01-07T01:00:00Z,25.7020,-81.1860,1.0,27.67,2 
ENP,ioos.station.NOAA.NDBC:CNBF1:1,2015-01-07T02:00:00Z,25.7020,-81.1860,1.0,27.43,2 
ENP,ioos.station.NOAA.NDBC:CNBF1:1,2015-01-07T03:00:00Z,25.7020,-81.1860,1.0,27.21,2 
ENP,ioos.station.NOAA.NDBC:CNBF1:1,2015-01-07T04:00:00Z,25.7020,-81.1860,1.0,27.03,2 
ENP,ioos.station.NOAA.NDBC:CNBF1:1,2015-01-07T05:00:00Z,25.7020,-81.1860,1.0,26.77,2 
ENP,ioos.station.NOAA.NDBC:CNBF1:1,2015-01-07T06:00:00Z,25.7020,-81.1860,1.0,26.59,2 
ENP,ioos.station.NOAA.NDBC:CNBF1:1,2015-01-07T07:00:00Z,25.7020,-81.1860,1.0,26.37,2 
ENP,ioos.station.NOAA.NDBC:CNBF1:1,2015-01-07T08:00:00Z,25.7020,-81.1860,1.0,26.36,2 
ENP,ioos.station.NOAA.NDBC:CNBF1:1,2015-01-07T09:00:00Z,25.7020,-81.1860,1.0,26.17,2 
ENP,ioos.station.NOAA.NDBC:CNBF1:1,2015-01-07T10:00:00Z,25.7020,-81.1860,1.0,26.16,2 
ENP,ioos.station.NOAA.NDBC:CNBF1:1,2015-01-07T11:00:00Z,25.7020,-81.1860,1.0,26.12,2 
ENP,ioos.station.NOAA.NDBC:CNBF1:1,2015-01-07T12:00:00Z,25.7020,-81.1860,1.0,26.04,2 
ENP,ioos.station.NOAA.NDBC:CNBF1:1,2015-01-07T13:00:00Z,25.7020,-81.1860,1.0,25.79,2 
ENP,ioos.station.NOAA.NDBC:CNBF1:1,2015-01-07T14:00:00Z,25.7020,-81.1860,1.0,25.77,2 
ENP,ioos.station.NOAA.NDBC:CNBF1:1,2015-01-07T15:00:00Z,25.7020,-81.1860,1.0,25.8,2 
ENP,ioos.station.NOAA.NDBC:CNBF1:1,2015-01-07T16:00:00Z,25.7020,-81.1860,1.0,25.97,2 
ENP,ioos.station.NOAA.NDBC:CNBF1:1,2015-01-07T17:00:00Z,25.7020,-81.1860,1.0,26.18,2 
ENP,ioos.station.NOAA.NDBC:CNBF1:1,2015-01-07T18:00:00Z,25.7020,-81.1860,1.0,26.32,2 
ENP,ioos.station.NOAA.NDBC:CNBF1:1,2015-01-07T19:00:00Z,25.7020,-81.1860,1.0,26.58,2 
ENP,ioos.station.NOAA.NDBC:CNBF1:1,2015-01-07T20:00:00Z,25.7020,-81.1860,1.0,26.86,2 
ENP,ioos.station.NOAA.NDBC:CNBF1:1,2015-01-07T21:00:00Z,25.7020,-81.1860,1.0,27.3,2 
ENP,ioos.station.NOAA.NDBC:CNBF1:1,2015-01-07T22:00:00Z,25.7020,-81.1860,1.0,27.21,2 
ENP,ioos.station.NOAA.NDBC:CNBF1:1,2015-01-07T23:00:00Z,25.7020,-81.1860,1.0,26.94,2 
ENP,ioos.station.NOAA.NDBC:CNBF1:1,2015-01-08T00:00:00Z,25.7020,-81.1860,1.0,26.67,2 
ENP,ioos.station.NOAA.NDBC:CNBF1:1,2015-01-08T01:00:00Z,25.7020,-81.1860,1.0,26.33,2 
ENP,ioos.station.NOAA.NDBC:CNBF1:1,2015-01-08T02:00:00Z,25.7020,-81.1860,1.0,26.05,2 
ENP,ioos.station.NOAA.NDBC:CNBF1:1,2015-01-08T03:00:00Z,25.7020,-81.1860,1.0,25.63,2 
ENP,ioos.station.NOAA.NDBC:CNBF1:1,2015-01-08T05:00:00Z,25.7020,-81.1860,1.0,25.09,2 
ENP,ioos.station.NOAA.NDBC:CNBF1:1,2015-01-08T06:00:00Z,25.7020,-81.1860,1.0,25.15,2 
ENP,ioos.station.NOAA.NDBC:CNBF1:1,2015-01-08T07:00:00Z,25.7020,-81.1860,1.0,24.94,2 
ENP,ioos.station.NOAA.NDBC:CNBF1:1,2015-01-08T08:00:00Z,25.7020,-81.1860,1.0,23.89,2 
ENP,ioos.station.NOAA.NDBC:CNBF1:1,2015-01-08T09:00:00Z,25.7020,-81.1860,1.0,23.29,2 
ENP,ioos.station.NOAA.NDBC:CNBF1:1,2015-01-08T10:00:00Z,25.7020,-81.1860,1.0,23.41,2 
ENP,ioos.station.NOAA.NDBC:CNBF1:1,2015-01-08T11:00:00Z,25.7020,-81.1860,1.0,23.51,2 
ENP,ioos.station.NOAA.NDBC:CNBF1:1,2015-01-08T12:00:00Z,25.7020,-81.1860,1.0,23.05,2 
ENP,ioos.station.NOAA.NDBC:CNBF1:1,2015-01-08T13:00:00Z,25.7020,-81.1860,1.0,22.97,2 
ENP,ioos.station.NOAA.NDBC:CNBF1:1,2015-01-08T14:00:00Z,25.7020,-81.1860,1.0,22.93,2 
ENP,ioos.station.NOAA.NDBC:CNBF1:1,2015-01-08T15:00:00Z,25.7020,-81.1860,1.0,22.44,2 
ENP,ioos.station.NOAA.NDBC:CNBF1:1,2015-01-08T16:00:00Z,25.7020,-81.1860,1.0,21.6,2 
ENP,ioos.station.NOAA.NDBC:CNBF1:1,2015-01-08T17:00:00Z,25.7020,-81.1860,1.0,21.49,2 
ENP,ioos.station.NOAA.NDBC:CNBF1:1,2015-01-08T18:00:00Z,25.7020,-81.1860,1.0,21.69,2 
ENP,ioos.station.NOAA.NDBC:CNBF1:1,2015-01-08T19:00:00Z,25.7020,-81.1860,1.0,21.82,2 
ENP,ioos.station.NOAA.NDBC:CNBF1:1,2015-01-08T20:00:00Z,25.7020,-81.1860,1.0,21.96,2 
ENP,ioos.station.NOAA.NDBC:CNBF1:1,2015-01-08T21:00:00Z,25.7020,-81.1860,1.0,22.12,2 
ENP,ioos.station.NOAA.NDBC:CNBF1:1,2015-01-08T22:00:00Z,25.7020,-81.1860,1.0,22.12,2 
ENP,ioos.station.NOAA.NDBC:CNBF1:1,2015-01-08T23:00:00Z,25.7020,-81.1860,1.0,22.1,2 
ENP,ioos.station.NOAA.NDBC:CNBF1:1,2015-01-09T00:00:00Z,25.7020,-81.1860,1.0,21.94,2 
ENP,ioos.station.NOAA.NDBC:CNBF1:1,2015-01-09T01:00:00Z,25.7020,-81.1860,1.0,21.81,2 
ENP,ioos.station.NOAA.NDBC:CNBF1:1,2015-01-09T02:00:00Z,25.7020,-81.1860,1.0,21.74,2 
ENP,ioos.station.NOAA.NDBC:CNBF1:1,2015-01-09T04:00:00Z,25.7020,-81.1860,1.0,21.42,2 
ENP,ioos.station.NOAA.NDBC:CNBF1:1,2015-01-09T05:00:00Z,25.7020,-81.1860,1.0,21.2,2 
ENP,ioos.station.NOAA.NDBC:CNBF1:1,2015-01-09T06:00:00Z,25.7020,-81.1860,1.0,20.99,2 
ENP,ioos.station.NOAA.NDBC:CNBF1:1,2015-01-09T07:00:00Z,25.7020,-81.1860,1.0,20.85,2 
ENP,ioos.station.NOAA.NDBC:CNBF1:1,2015-01-09T08:00:00Z,25.7020,-81.1860,1.0,20.66,2 
ENP,ioos.station.NOAA.NDBC:CNBF1:1,2015-01-09T09:00:00Z,25.7020,-81.1860,1.0,20.45,2 
ENP,ioos.station.NOAA.NDBC:CNBF1:1,2015-01-09T10:00:00Z,25.7020,-81.1860,1.0,20.28,2 
ENP,ioos.station.NOAA.NDBC:CNBF1:1,2015-01-09T11:00:00Z,25.7020,-81.1860,1.0,20.12,2 
ENP,ioos.station.NOAA.NDBC:CNBF1:1,2015-01-09T12:00:00Z,25.7020,-81.1860,1.0,20.01,2 
ENP,ioos.station.NOAA.NDBC:CNBF1:1,2015-01-09T13:00:00Z,25.7020,-81.1860,1.0,19.94,2 
ENP,ioos.station.NOAA.NDBC:CNBF1:1,2015-01-09T14:00:00Z,25.7020,-81.1860,1.0,19.9,2 
ENP,ioos.station.NOAA.NDBC:CNBF1:1,2015-01-10T12:00:00Z,25.7020,-81.1860,1.0,20.44,2 
ENP,ioos.station.NOAA.NDBC:CNBF1:1,2015-01-10T13:00:00Z,25.7020,-81.1860,1.0,20.32,2 
ENP,ioos.station.NOAA.NDBC:CNBF1:1,2015-01-10T14:00:00Z,25.7020,-81.1860,1.0,19.95,2 
ENP,ioos.station.NOAA.NDBC:CNBF1:1,2015-01-10T15:00:00Z,25.7020,-81.1860,1.0,20.74,2 
ENP,ioos.station.NOAA.NDBC:CNBF1:1,2015-01-10T16:00:00Z,25.7020,-81.1860,1.0,21.29,2 
ENP,ioos.station.NOAA.NDBC:CNBF1:1,2015-01-10T17:00:00Z,25.7020,-81.1860,1.0,20.9,2 
ENP,ioos.station.NOAA.NDBC:CNBF1:1,2015-01-10T18:00:00Z,25.7020,-81.1860,1.0,21.09,2 
ENP,ioos.station.NOAA.NDBC:CNBF1:1,2015-01-10T19:00:00Z,25.7020,-81.1860,1.0,21.56,2 
ENP,ioos.station.NOAA.NDBC:CNBF1:1,2015-01-10T20:00:00Z,25.7020,-81.1860,1.0,21.92,2 
ENP,ioos.station.NOAA.NDBC:CNBF1:1,2015-01-10T21:00:00Z,25.7020,-81.1860,1.0,21.88,2 
ENP,ioos.station.NOAA.NDBC:CNBF1:1,2015-01-10T22:00:00Z,25.7020,-81.1860,1.0,21.72,2 
ENP,ioos.station.NOAA.NDBC:CNBF1:1,2015-01-10T23:00:00Z,25.7020,-81.1860,1.0,21.78,2 
ENP,ioos.station.NOAA.NDBC:CNBF1:1,2015-01-11T00:00:00Z,25.7020,-81.1860,1.0,21.72,2 
ENP,ioos.station.NOAA.NDBC:CNBF1:1,2015-01-11T01:00:00Z,25.7020,-81.1860,1.0,21.71,2 
ENP,ioos.station.NOAA.NDBC:CNBF1:1,2015-01-11T02:00:00Z,25.7020,-81.1860,1.0,21.62,2 
ENP,ioos.station.NOAA.NDBC:CNBF1:1,2015-01-11T03:00:00Z,25.7020,-81.1860,1.0,21.53,2 
ENP,ioos.station.NOAA.NDBC:CNBF1:1,2015-01-11T04:00:00Z,25.7020,-81.1860,1.0,21.3,2 
ENP,ioos.station.NOAA.NDBC:CNBF1:1,2015-01-11T05:00:00Z,25.7020,-81.1860,1.0,21.12,2 
ENP,ioos.station.NOAA.NDBC:CNBF1:1,2015-01-11T06:00:00Z,25.7020,-81.1860,1.0,21.0,2 
ENP,ioos.station.NOAA.NDBC:CNBF1:1,2015-01-11T07:00:00Z,25.7020,-81.1860,1.0,20.89,2 
ENP,ioos.station.NOAA.NDBC:CNBF1:1,2015-01-11T08:00:00Z,25.7020,-81.1860,1.0,20.79,2 
ENP,ioos.station.NOAA.NDBC:CNBF1:1,2015-01-11T09:00:00Z,25.7020,-81.1860,1.0,20.64,2 
ENP,ioos.station.NOAA.NDBC:CNBF1:1,2015-01-11T10:00:00Z,25.7020,-81.1860,1.0,20.54,2 
ENP,ioos.station.NOAA.NDBC:CNBF1:1,2015-01-11T11:00:00Z,25.7020,-81.1860,1.0,20.43,2 
ENP,ioos.station.NOAA.NDBC:CNBF1:1,2015-01-11T12:00:00Z,25.7020,-81.1860,1.0,20.34,2 
ENP,ioos.station.NOAA.NDBC:CNBF1:1,2015-01-11T13:00:00Z,25.7020,-81.1860,1.0,20.24,2 
ENP,ioos.station.NOAA.NDBC:CNBF1:1,2015-01-11T14:00:00Z,25.7020,-81.1860,1.0,20.19,2 
ENP,ioos.station.NOAA.NDBC:CNBF1:1,2015-01-11T15:00:00Z,25.7020,-81.1860,1.0,20.32,2 
ENP,ioos.station.NOAA.NDBC:CNBF1:1,2015-01-11T16:00:00Z,25.7020,-81.1860,1.0,20.65,2 
ENP,ioos.station.NOAA.NDBC:CNBF1:1,2015-01-11T17:00:00Z,25.7020,-81.1860,1.0,21.0,2 
ENP,ioos.station.NOAA.NDBC:CNBF1:1,2015-01-11T18:00:00Z,25.7020,-81.1860,1.0,21.53,2 
ENP,ioos.station.NOAA.NDBC:CNBF1:1,2015-01-11T19:00:00Z,25.7020,-81.1860,1.0,21.9,2 
ENP,ioos.station.NOAA.NDBC:CNBF1:1,2015-01-11T20:00:00Z,25.7020,-81.1860,1.0,22.21,2 
ENP,ioos.station.NOAA.NDBC:CNBF1:1,2015-01-11T21:00:00Z,25.7020,-81.1860,1.0,22.3,2 
ENP,ioos.station.NOAA.NDBC:CNBF1:1,2015-01-11T22:00:00Z,25.7020,-81.1860,1.0,22.23,2 
ENP,ioos.station.NOAA.NDBC:CNBF1:1,2015-01-11T23:00:00Z,25.7020,-81.1860,1.0,22.22,2 
ENP,ioos.station.NOAA.NDBC:CNBF1:1,2015-01-12T00:00:00Z,25.7020,-81.1860,1.0,22.28,2 
ENP,ioos.station.NOAA.NDBC:CNBF1:1,2015-01-12T01:00:00Z,25.7020,-81.1860,1.0,22.27,2 
ENP,ioos.station.NOAA.NDBC:CNBF1:1,2015-01-12T02:00:00Z,25.7020,-81.1860,1.0,22.23,2 
ENP,ioos.station.NOAA.NDBC:CNBF1:1,2015-01-12T03:00:00Z,25.7020,-81.1860,1.0,22.19,2 
ENP,ioos.station.NOAA.NDBC:CNBF1:1,2015-01-12T04:00:00Z,25.7020,-81.1860,1.0,22.14,2 
ENP,ioos.station.NOAA.NDBC:CNBF1:1,2015-01-12T05:00:00Z,25.7020,-81.1860,1.0,22.07,2 
ENP,ioos.station.NOAA.NDBC:CNBF1:1,2015-01-12T06:00:00Z,25.7020,-81.1860,1.0,22.01,2 
ENP,ioos.station.NOAA.NDBC:CNBF1:1,2015-01-12T07:00:00Z,25.7020,-81.1860,1.0,21.99,2 
ENP,ioos.station.NOAA.NDBC:CNBF1:1,2015-01-12T08:00:00Z,25.7020,-81.1860,1.0,21.99,2 
ENP,ioos.station.NOAA.NDBC:CNBF1:1,2015-01-12T09:00:00Z,25.7020,-81.1860,1.0,21.99,2 
ENP,ioos.station.NOAA.NDBC:CNBF1:1,2015-01-12T10:00:00Z,25.7020,-81.1860,1.0,22.01,2 
ENP,ioos.station.NOAA.NDBC:CNBF1:1,2015-01-12T11:00:00Z,25.7020,-81.1860,1.0,22.04,2 
ENP,ioos.station.NOAA.NDBC:CNBF1:1,2015-01-12T12:00:00Z,25.7020,-81.1860,1.0,22.04,2 
ENP,ioos.station.NOAA.NDBC:CNBF1:1,2015-01-12T13:00:00Z,25.7020,-81.1860,1.0,21.98,2 
ENP,ioos.station.NOAA.NDBC:CNBF1:1,2015-01-12T14:00:00Z,25.7020,-81.1860,1.0,21.91,2 
ENP,ioos.station.NOAA.NDBC:CNBF1:1,2015-01-12T15:00:00Z,25.7020,-81.1860,1.0,21.87,2 
ENP,ioos.station.NOAA.NDBC:CNBF1:1,2015-01-12T16:00:00Z,25.7020,-81.1860,1.0,21.97,2 
ENP,ioos.station.NOAA.NDBC:CNBF1:1,2015-01-12T17:00:00Z,25.7020,-81.1860,1.0,22.12,2 
ENP,ioos.station.NOAA.NDBC:CNBF1:1,2015-01-12T18:00:00Z,25.7020,-81.1860,1.0,22.2,2 
ENP,ioos.station.NOAA.NDBC:CNBF1:1,2015-01-12T19:00:00Z,25.7020,-81.1860,1.0,22.27,2 
ENP,ioos.station.NOAA.NDBC:CNBF1:1,2015-01-12T20:00:00Z,25.7020,-81.1860,1.0,22.34,2 
ENP,ioos.station.NOAA.NDBC:CNBF1:1,2015-01-12T21:00:00Z,25.7020,-81.1860,1.0,22.44,2 
ENP,ioos.station.NOAA.NDBC:CNBF1:1,2015-01-12T22:00:00Z,25.7020,-81.1860,1.0,22.63,2 
ENP,ioos.station.NOAA.NDBC:CNBF1:1,2015-01-12T23:00:00Z,25.7020,-81.1860,1.0,22.7,2 
ENP,ioos.station.NOAA.NDBC:CNBF1:1,2015-01-13T00:00:00Z,25.7020,-81.1860,1.0,22.69,2 
ENP,ioos.station.NOAA.NDBC:CNBF1:1,2015-01-13T01:00:00Z,25.7020,-81.1860,1.0,22.69,2 
ENP,ioos.station.NOAA.NDBC:CNBF1:1,2015-01-13T02:00:00Z,25.7020,-81.1860,1.0,22.68,2 
ENP,ioos.station.NOAA.NDBC:CNBF1:1,2015-01-13T03:00:00Z,25.7020,-81.1860,1.0,22.66,2 
ENP,ioos.station.NOAA.NDBC:CNBF1:1,2015-01-13T04:00:00Z,25.7020,-81.1860,1.0,22.62,2 
ENP,ioos.station.NOAA.NDBC:CNBF1:1,2015-01-13T05:00:00Z,25.7020,-81.1860,1.0,22.54,2 
ENP,ioos.station.NOAA.NDBC:CNBF1:1,2015-01-13T06:00:00Z,25.7020,-81.1860,1.0,22.49,2 
ENP,ioos.station.NOAA.NDBC:CNBF1:1,2015-01-13T07:00:00Z,25.7020,-81.1860,1.0,22.48,2 
ENP,ioos.station.NOAA.NDBC:CNBF1:1,2015-01-13T08:00:00Z,25.7020,-81.1860,1.0,22.49,2 
ENP,ioos.station.NOAA.NDBC:CNBF1:1,2015-01-13T09:00:00Z,25.7020,-81.1860,1.0,22.5,2 
ENP,ioos.station.NOAA.NDBC:CNBF1:1,2015-01-13T10:00:00Z,25.7020,-81.1860,1.0,22.47,2 
ENP,ioos.station.NOAA.NDBC:CNBF1:1,2015-01-13T11:00:00Z,25.7020,-81.1860,1.0,22.42,2 
ENP,ioos.station.NOAA.NDBC:CNBF1:1,2015-01-13T12:00:00Z,25.7020,-81.1860,1.0,22.25,2 
ENP,ioos.station.NOAA.NDBC:CNBF1:1,2015-01-13T13:00:00Z,25.7020,-81.1860,1.0,22.06,2 
ENP,ioos.station.NOAA.NDBC:CNBF1:1,2015-01-13T14:00:00Z,25.7020,-81.1860,1.0,22.16,2 
ENP,ioos.station.NOAA.NDBC:CNBF1:1,2015-01-13T15:00:00Z,25.7020,-81.1860,1.0,22.28,2 
ENP,ioos.station.NOAA.NDBC:CNBF1:1,2015-01-13T16:00:00Z,25.7020,-81.1860,1.0,22.44,2 
ENP,ioos.station.NOAA.NDBC:CNBF1:1,2015-01-13T17:00:00Z,25.7020,-81.1860,1.0,22.62,2 
ENP,ioos.station.NOAA.NDBC:CNBF1:1,2015-01-13T18:00:00Z,25.7020,-81.1860,1.0,22.83,2 
ENP,ioos.station.NOAA.NDBC:CNBF1:1,2015-01-13T19:00:00Z,25.7020,-81.1860,1.0,23.78,2 